Flag for Germany Weather past 2 weeks in Taunusstein, Hesse, Germany

Now
59 °F

Thunderstorms. Mostly cloudy.


Feels Like: 59 °F
Forecast: 52 / 61 °F
Wind: No wind

Location: Wiesbaden Airport

Current Time: Aug 31, 2014 at 3:26:56 AM

Latest Report: Aug 31, 2014 at 2:58 AM


Visibility: N/A

Pressure: 30.00 "Hg

Humidity: 93%

Dew point: 57 °F

Location of TaunussteinLocation

Historic Weather in Taunusstein — Graph

°F

Taunusstein temperature yesterday

Maximum temperature yesterday: 70 °F (at 11:58 AM)
Minimum temperature yesterday: 54 °F (at 6:58 AM)
Average temperature yesterday: 65 °F

Past Weeks' High & Low Weather Summary

 TemperatureHumidityPressure
High75 °F (Aug 29, 4:58 PM)100% (Aug 17, 3:58 AM)30.14 "Hg (Aug 17, 3:58 AM)
Low45 °F (Aug 22, 6:58 AM)43% (Aug 21, 6:58 PM)29.66 "Hg (Aug 26, 8:04 AM)
Average60 °F77%29.97 "Hg
* Reported Aug 16 1:58 AM — Aug 31 1:58 AM, Taunusstein, Weather by CustomWeather, © 2014

Note: Actual official high and low records may vary slightly from our data, if they occured in-between our weather recording intervals... More about our weather records

Advertising

Taunusstein weather history for previous 24 hours

 ConditionsComfort  
Time TempWeatherWind HumidityBarometerVisibility
1:58 AM
Aug 31
61 °FRain. Overcast.6 mph94%30.01 "HgN/A
12:58 AM63 °FLight rain. Low clouds.2 mph88%30.01 "HgN/A
11:58 PM
Aug 30
64 °FMostly cloudy.2 mph83%30.01 "HgN/A
10:58 PM64 °FPassing clouds.2 mph81%30.03 "HgN/A
9:58 PM65 °FOvercast.No wind78%30.03 "HgN/A
8:58 PM66 °FMore clouds than sun.No wind73%30.04 "HgN/A
7:58 PM67 °FMostly cloudy.2 mph71%30.03 "HgN/A
6:58 PM70 °FBroken clouds.6 mph64%30.04 "HgN/A
5:58 PM69 °FMostly cloudy.8 mph63%30.04 "HgN/A
4:58 PM70 °FPartly sunny.10 mph64%30.05 "HgN/A
4:01 PM70 °FLight rain. Partly sunny.10 mph60%30.05 "HgN/A
3:58 PM70 °FBroken clouds.10 mph60%30.05 "HgN/A
2:58 PM70 °FPartly sunny.12 mph60%30.06 "HgN/A
1:58 PM70 °FPartly sunny.10 mph61%30.08 "HgN/A
12:58 PM68 °FCloudy.9 mph64%30.09 "HgN/A
11:58 AM70 °FScattered clouds.10 mph60%30.09 "HgN/A
10:58 AM66 °FPartly sunny.8 mph74%30.09 "HgN/A
9:58 AM64 °FPassing clouds.5 mph78%30.10 "HgN/A
8:58 AM60 °FScattered clouds.1 mph88%30.09 "HgN/A
7:58 AM59 °FScattered clouds.3 mph88%30.09 "HgN/A
6:58 AM54 °FPassing clouds.2 mph100%30.08 "HgN/A
5:58 AM57 °FClear.No wind94%30.08 "HgN/A
4:58 AM55 °FClear.No wind100%30.08 "HgN/A
3:58 AM59 °FPassing clouds.1 mph92%30.06 "HgN/A
Weather by CustomWeather, © 2014

See weather overviewHow to use our weather pages